STARLINK-5924, 55963

Orbit data source: Space-Track

STARLINK-5924, 55963 is a payload satellite owned by SpaceX/Seattle (US) in LEO that was launched on Fri, 17 Mar 2023 UTC via an FALCON 9 launch vehicle from the Air Force Western Test Range (AFWTR). Payload-class satellites include a variety of spacecraft equipped with specific instruments for various scientific and technological missions. These include communications satellites like Starlink; space stations such as the ISS; scientific satellites like the Hubble; Earth observation satellites from companies like Planet Labs, Umbra, and HawkEye 360; GPS; miniature CubeSats for education and research; and military/defense satellites.

Loading next visibility...
Identifier
55963, 2023-037BB
Orbit
LEO
Country
Flag of USUS
Related business
Manufacturer
SpaceX/Seattle
Mission
Operational Commercial Communications
Bus & Motor
STARLINK, Unknown motor
Mass
305 kg wet, ~290 kg dry
Launch date (UTC)
2023-03-17 (3 years ago)
Launch vehicle
FALCON 9
Launch site
Air Force Western Test Range (AFWTR)
Object type
Payload
Rocket body
Debris
Shape & HBR
Box + 1 Pan, 10.1 m
Radar Cross Section
11.087 m², Large (>1 m²)

Expand to show TLE details & history
Last TLE update: 20 hours ago

TLE from 20 hours ago
0 STARLINK-5924
1 55963U 23037BB  25348.76780880  .00000698  00000-0  66305-4 0  9996
2 55963  69.9994 118.5374 0003102 268.3069  91.7735 14.98325778151750
Epoch: 2025-12-14T18:25Z
TLE epoch observation values (Epoch: 2025-12-14T18:25:38.680Z)
Latitude
0.00001°
Longitude
118.45024°
Altitude
574.56 km
Speed
7.574 km/s
True Right ascension
07h 54m 08s
True Declination
0° 00' 00"
Sunlit
Object was in full shadow at epoch
Visualization orbit readout
Latitude
Unknown
Longitude
Unknown
Altitude
Unknown
Speed
Unknown
Apparent Right ascension
Unknown
Apparent Declination
Unknown
Sunlit
N/A
Visualization observer readout
Local Sidereal Time
13:18:25
Azimuth
Unknown
Elevation
Unknown
Doppler factor
Unknown
Orbital elements
Apogee altitude
572.173 km
Perigee altitude
567.862 km
Semi-major axis
6,948.154 km
Eccentricity
0.00031
Inclination
69.9994°
RAAN
118.5374°
Arg. of periapsis
268.3069°
True anomaly
91.80903°
Mean anomaly
91.7735°
Eccentric anomaly
91.79126°
Mean motion
3.74748 °/min
Orbital period
96.06 mins
BSTAR
0.000066305
Loading maneuver chart data...
Computing Atmospheric mass density...
Loading historical data...
Loading historical data...
Loading historical data...
Loading historical data...
Loading historical data...
Loading historical data...
Loading historical data...

Documentation

Showing up to 5 results
|